User: anonymous   Login
Location: Unspecified
(0.0000°N, 0.0000°E)
Time: 05:48:49
(UTC+00:00)
Language:

STARLINK-5014 - Orbit

View from above orbital plane
View from above orbital plane
View from above satellite
View from above satellite

Ground track
Ground track

The orbit is defined by the following mean orbital elements,

1 53926U          26145.66668980 +.00000000 +00000-0 +91877-2 0 00009
2 53926  53.2188 315.9016 0000840  79.5167 342.4989 15.47121013    00
Epoch (UTC): 25 May 2026 16:00:01
Eccentricity: 0.0000840
inclination: 53.2188°
perigee height: 425 km
apogee height: 426 km
right ascension of ascending node: 315.9016°
argument of perigee: 79.5167°
revolutions per day: 15.47121013
mean anomaly at epoch: 342.4989°

The dashed part of the orbit path shows where the satellite is in the earth's shadow,  

DLR